Theta_e
301 300 301 301 301 299 298 298 298 298 299 299 297 297 297 298 292 290 296 298 296 297 299 302 303 305 306 307 307 308 309 309 310 310 309 310 310 311 310 311 312 312 311 312 313 313 313 313 313 313 312 312 313 313 312 312 312 312 313 312 311 311 311 311 311 312 312 313 314 314 314 313 313 313 314 314 314 313 313 313 314 314 314 313 315 317 319
299 300 300 300 300 299 299 298 298 299 298 299 298 298 299 298 297 298 298 298 298 300 301 302 305 307 307 308 310 311 308 308 309 308 309 309 309 310 310 310 311 311 312 312 313 313 313 312 312 311 312 311 311 311 311 311 311 311 311 311 310 310 310 310 311 311 311 312 311 313 313 312 312 313 312 312 312 312 311 312 314 314 314 314 315 316 317
297 299 300 300 299 298 297 298 299 298 300 299 299 299 300 300 298 299 299 298 298 303 305 304 307 308 307 307 307 308 309 308 308 308 308 309 309 308 309 310 311 311 312 312 312 312 312 312 312 312 312 312 312 311 311 310 310 310 310 310 310 309 308 309 310 311 311 311 310 310 312 312 312 311 310 311 311 311 312 312 314 314 314 313 314 317 317
295 298 298 299 299 298 297 297 298 298 298 297 300 296 301 299 297 299 299 296 297 303 305 305 306 306 305 305 306 306 307 308 309 308 308 308 308 309 309 310 311 311 311 311 311 312 312 312 312 311 311 311 311 310 309 309 310 310 310 309 309 309 309 309 310 309 310 310 309 310 311 309 310 310 311 310 310 310 311 312 314 315 314 313 313 316 318
290 297 296 297 297 296 293 296 298 299 300 300 301 301 302 302 302 297 292 296 302 303 304 302 303 305 304 305 305 307 308 308 307 307 307 308 309 310 310 310 310 310 310 311 312 312 312 312 311 312 312 311 310 309 309 310 310 310 309 309 308 308 309 309 309 310 309 309 309 309 309 310 310 311 310 310 310 311 311 313 313 313 313 313 314 316 319
291 296 297 298 293 286 289 300 305 304 301 301 299 299 301 304 304 300 302 302 303 304 303 303 303 304 305 306 309 311 310 308 309 309 309 309 310 310 311 311 310 310 311 312 313 313 313 313 313 313 313 312 311 311 311 311 310 309 308 308 308 308 308 308 308 309 309 308 308 308 309 310 310 310 310 310 312 312 312 313 312 312 313 313 314 317 319
292 296 297 290 285 287 302 306 307 306 305 303 302 303 303 304 305 305 303 302 303 304 305 304 305 306 308 310 309 309 311 311 309 309 309 309 310 311 311 311 311 312 312 313 313 313 313 312 314 313 312 312 311 310 310 309 309 309 308 308 308 308 308 308 308 309 308 308 308 309 309 309 310 310 311 311 311 312 312 312 311 311 311 312 315 318 318
295 292 291 284 287 300 302 305 306 306 304 304 303 300 302 303 303 304 302 303 304 304 304 306 307 307 309 309 309 309 311 311 311 309 309 310 310 310 311 312 312 312 312 312 313 313 314 313 312 311 311 311 310 309 309 309 309 309 308 308 308 308 307 308 308 308 308 308 308 309 309 310 310 310 310 311 310 311 311 311 312 313 313 314 316 316 317
290 291 291 290 298 298 301 301 301 301 300 302 299 291 297 304 305 304 302 303 303 304 305 306 307 309 307 304 305 311 309 309 310 310 309 311 310 311 312 313 313 314 314 314 314 314 314 314 312 312 312 311 310 309 309 309 308 308 307 307 307 308 307 307 308 308 308 308 308 309 309 309 308 309 309 310 311 311 310 310 310 311 312 313 313 313 313
296 292 290 290 290 286 292 303 307 310 309 307 306 302 297 306 304 304 303 303 303 304 304 305 307 308 302 300 302 307 309 310 309 310 310 311 311 311 312 313 313 314 315 315 315 314 314 313 313 313 312 310 309 309 308 308 307 307 307 307 307 307 307 307 307 307 307 307 308 308 309 308 308 308 309 310 310 311 310 309 309 310 311 311 313 313 313
293 291 289 288 286 289 300 303 307 308 308 306 307 299 294 302 304 304 304 303 303 304 304 306 306 303 298 299 303 307 309 309 310 309 309 310 311 311 312 312 312 312 314 314 313 314 313 312 312 312 311 310 308 308 308 307 307 306 307 307 306 306 307 307 307 307 308 309 308 308 308 308 309 309 309 309 310 310 310 310 309 310 310 310 311 312 313
293 292 289 288 291 290 299 305 305 306 306 306 303 290 290 302 305 305 305 303 304 305 306 306 304 301 298 299 304 309 310 310 311 310 309 310 311 311 312 313 314 314 314 313 312 312 311 312 313 311 310 309 308 307 307 307 306 306 307 307 307 307 307 307 307 308 308 309 309 309 308 308 309 308 310 309 309 309 310 309 308 309 309 310 310 310 312
294 289 291 293 293 299 307 305 307 305 307 304 291 287 294 304 306 306 306 305 305 307 307 306 301 305 306 307 309 312 312 310 310 312 312 311 311 311 312 313 311 312 313 312 310 311 311 311 311 310 309 308 307 307 307 307 306 307 308 307 307 307 307 307 307 307 308 308 308 309 309 308 309 309 309 308 308 309 308 308 308 308 309 309 309 310 311
292 294 291 291 294 304 307 307 307 306 302 291 290 300 307 307 306 307 308 306 308 308 307 306 306 307 310 309 310 310 311 310 311 310 312 312 313 314 313 314 313 313 312 312 312 311 311 311 310 309 308 307 307 307 307 307 308 308 308 307 307 306 306 306 306 306 307 308 309 309 309 308 308 307 308 308 308 308 307 307 307 307 308 308 308 308 310
295 292 290 289 286 295 308 306 303 305 294 298 304 307 307 308 308 308 308 308 309 309 307 309 308 308 309 310 309 310 311 311 310 311 312 312 312 313 313 314 313 311 311 311 311 312 311 311 310 309 309 307 307 307 306 307 308 308 307 307 306 306 306 305 306 306 307 308 308 309 308 309 307 306 307 307 308 307 307 307 306 306 307 307 307 307 309
291 291 288 289 297 304 309 305 296 303 305 310 309 307 306 308 309 308 308 309 309 310 308 308 308 309 309 309 310 310 310 311 312 312 313 313 313 313 313 313 313 313 312 311 311 312 311 311 310 309 309 307 307 306 306 307 308 308 307 306 306 306 305 305 305 305 306 306 306 307 307 307 307 307 306 306 306 306 306 305 304 305 305 306 307 307 308
295 293 297 304 307 308 309 308 307 313 313 316 313 310 309 307 309 310 308 308 310 311 309 309 308 307 309 309 309 308 309 310 311 311 311 312 312 312 312 312 313 313 312 311 311 311 311 311 310 309 309 308 308 307 308 308 307 307 307 307 306 305 304 305 305 305 305 305 305 304 304 304 305 305 306 306 305 306 306 305 304 303 304 306 307 307 308
306 307 306 308 308 308 308 310 310 312 314 314 312 311 309 310 310 311 309 310 310 311 311 308 308 308 308 308 309 309 310 310 310 312 312 312 313 313 313 313 313 313 313 312 311 311 311 311 310 309 310 309 308 308 308 307 307 307 307 306 305 305 305 304 304 304 304 304 304 303 304 304 303 303 305 305 304 304 304 304 304 304 304 305 306 307 306
298 293 306 305 306 308 309 308 310 312 313 314 314 312 311 311 312 312 312 312 312 311 312 310 308 308 309 309 309 309 310 310 310 311 311 312 312 311 311 312 312 313 312 311 310 310 310 310 309 309 310 310 310 309 308 308 308 307 307 306 305 305 304 304 304 305 304 303 303 303 304 303 303 303 302 302 303 303 303 303 303 303 304 305 306 306 306
299 297 305 307 309 309 309 308 307 308 310 312 314 314 314 313 314 313 313 315 314 314 312 311 310 309 309 309 309 308 309 309 310 310 311 311 311 312 313 313 315 314 312 311 311 310 309 310 310 309 309 309 310 309 308 308 308 307 307 306 306 306 305 305 304 304 303 299 301 302 302 303 301 301 302 303 301 302 302 304 302 302 303 304 304 305 304
303 305 306 306 306 305 306 308 310 310 310 310 312 314 315 314 313 313 313 314 313 313 312 312 312 310 309 309 310 309 309 310 310 310 310 311 311 312 312 314 315 312 312 311 311 311 310 310 311 310 309 310 310 310 309 308 308 307 306 305 306 306 306 304 303 303 303 303 302 302 302 302 302 302 301 301 302 302 305 306 306 305 304 304 305 306 306
297 298 302 305 296 296 303 307 311 312 312 312 312 312 313 313 313 313 312 313 314 314 315 314 313 311 309 310 311 310 309 310 311 312 311 311 312 312 313 314 315 314 313 312 311 311 310 311 311 310 310 309 309 309 308 308 308 307 307 306 307 306 305 303 303 303 303 302 303 302 302 301 301 301 296 297 300 303 303 300 294 294 294 302 305 305 306
297 305 306 308 306 304 306 309 311 313 314 313 312 313 313 314 315 314 314 312 313 314 315 315 314 312 311 310 311 312 311 311 312 312 312 312 312 312 313 314 315 314 313 312 311 311 310 311 310 310 309 309 309 309 309 308 308 307 307 305 305 305 304 303 302 304 303 303 302 302 302 302 302 300 300 301 294 292 295 296 295 293 291 290 290 290 298
306 307 307 308 306 304 307 309 311 312 314 313 312 312 313 314 314 315 314 313 311 310 311 313 315 314 313 313 313 313 312 312 313 313 314 315 314 313 313 313 313 312 312 312 311 311 312 311 310 310 309 309 309 309 310 309 308 308 307 305 304 304 304 304 303 304 304 303 303 303 302 302 301 300 299 298 300 295 290 292 293 291 292 291 290 290 289
303 310 308 309 309 309 310 311 312 312 313 313 311 312 315 314 314 315 314 313 314 313 311 311 313 315 314 313 313 313 312 312 312 313 312 311 312 313 313 312 313 312 311 312 311 311 310 310 310 311 309 309 309 309 309 309 308 308 307 306 305 305 304 304 303 302 302 303 302 302 302 301 301 301 299 298 297 298 299 293 291 293 293 292 291 291 291
309 310 310 309 310 310 311 310 310 312 312 313 314 314 316 314 313 313 314 314 313 314 312 312 311 312 314 312 312 313 313 312 310 310 313 312 312 312 312 313 313 313 312 312 311 311 311 310 310 311 309 309 309 309 309 309 308 308 308 308 307 305 304 304 303 303 303 303 302 302 302 302 301 300 300 299 298 298 297 299 300 300 292 291 291 291 290
309 309 308 307 307 308 310 308 307 312 311 313 313 314 313 313 313 313 313 314 313 313 312 312 312 312 312 312 311 312 311 312 313 313 312 312 311 311 311 311 312 313 313 312 311 309 307 311 310 310 310 309 310 310 310 310 310 310 309 309 308 300 294 298 305 304 303 303 303 303 303 302 301 300 300 298 298 298 297 296 297 298 302 305 293 291 297
309 310 309 305 304 306 310 312 311 311 311 311 312 311 311 312 312 311 310 311 311 312 312 314 312 312 312 313 313 312 313 312 311 312 311 310 310 310 311 313 314 313 312 312 311 311 310 311 310 310 310 310 310 310 309 309 310 310 309 309 308 307 307 305 306 306 305 304 303 303 303 302 302 300 299 299 298 297 296 297 297 300 300 302 302 291 290
308 309 310 310 310 311 313 313 313 312 312 313 311 312 312 310 309 308 308 309 309 309 309 310 312 312 312 312 313 312 311 311 310 310 310 311 311 312 313 314 314 313 312 311 311 311 311 310 310 309 310 311 311 310 309 309 309 309 309 308 308 307 306 306 306 306 305 304 303 303 298 298 300 301 301 301 299 298 297 296 297 299 301 302 303 303 296
309 310 309 310 311 311 311 311 309 310 310 310 310 310 309 309 307 306 307 307 308 307 308 310 310 310 312 311 312 312 311 311 311 311 311 311 312 312 312 312 312 312 312 311 311 310 309 308 308 308 309 311 312 310 309 309 309 310 308 307 308 306 306 305 304 303 303 304 303 296 300 296 301 301 301 300 299 297 296 297 298 298 299 301 298 301 301
309 310 310 311 312 311 309 309 310 309 309 310 310 308 308 307 307 307 307 307 308 307 309 309 310 311 311 311 311 312 312 312 312 312 312 312 313 313 313 312 310 307 308 308 309 309 309 309 309 309 310 310 310 310 309 310 309 309 308 307 307 299 294 294 296 305 304 302 301 301 302 300 299 299 298 298 298 296 296 297 298 299 300 302 302 299 300
309 309 310 311 310 309 309 309 308 308 308 309 308 307 307 307 306 306 306 306 308 309 310 309 309 310 311 311 312 312 311 311 311 311 311 312 312 312 312 312 311 305 310 310 310 309 309 308 307 308 309 309 309 309 309 310 309 307 306 301 306 305 300 292 301 302 299 296 297 301 298 299 299 299 297 297 297 297 296 297 298 299 300 299 298 300 300
308 307 307 308 308 308 307 308 308 308 308 308 308 308 308 308 308 307 309 309 309 309 309 309 310 310 311 311 311 310 310 310 310 309 309 308 309 309 310 310 310 310 309 309 309 309 308 307 307 309 309 309 308 308 308 308 307 307 307 306 305 304 298 298 298 301 298 300 298 299 300 299 299 299 298 296 296 296 298 298 299 299 298 299 299 301 300
309 308 311 312 310 308 308 308 309 308 308 309 309 309 308 309 309 309 309 308 309 308 308 309 310 310 310 310 309 309 309 308 305 306 307 307 308 308 309 309 309 309 309 309 309 308 308 308 309 309 308 307 306 306 307 307 308 308 307 305 303 302 302 302 297 300 299 298 298 299 297 298 298 298 299 296 296 296 297 298 297 298 299 300 300 299 294
312 312 313 311 311 310 311 310 309 308 308 307 308 309 309 309 309 308 307 309 308 308 309 309 308 308 309 309 307 307 306 305 305 306 306 306 306 307 308 308 307 307 307 307 308 308 308 308 309 307 306 306 307 307 307 307 307 306 306 305 303 301 301 304 303 302 299 299 299 299 297 298 296 294 295 296 297 297 298 298 298 298 298 299 299 299 296
311 310 310 309 310 311 311 310 310 310 309 308 309 308 308 309 309 309 309 308 308 308 308 307 308 307 307 306 305 305 305 306 306 306 306 306 307 308 307 306 305 305 305 305 307 307 308 308 294 290 303 307 307 308 308 307 306 306 305 303 303 300 301 300 300 300 300 300 298 298 298 297 295 295 296 298 297 298 298 299 298 298 298 298 298 298 299
311 311 310 310 311 312 312 310 310 310 309 309 309 309 309 309 308 309 309 308 308 308 308 307 307 305 305 306 306 306 306 307 306 306 307 307 308 307 306 305 304 304 303 303 305 307 308 307 294 290 301 305 307 308 307 295 305 304 304 304 304 303 302 301 301 301 301 298 298 298 296 297 298 298 296 297 298 298 298 298 296 297 297 297 297 298 296
311 311 313 312 311 312 312 310 310 310 310 309 309 307 307 308 308 308 307 308 308 308 308 307 306 306 307 307 305 305 305 306 306 306 306 305 306 305 304 304 303 304 303 304 305 307 307 302 293 299 307 307 307 307 305 294 292 300 303 303 302 301 301 301 300 300 299 298 296 296 297 297 298 297 296 296 297 297 296 297 296 296 296 296 296 295 295
311 312 312 312 311 311 310 310 311 310 309 308 308 308 307 307 308 308 307 307 307 307 307 307 306 306 305 305 304 304 305 306 306 305 305 304 305 304 304 304 305 306 307 306 306 305 305 301 304 306 306 306 306 307 302 295 292 302 303 303 303 302 301 301 300 299 298 298 297 296 297 297 297 297 296 296 296 296 294 295 295 295 295 295 295 294 294
310 310 310 310 309 310 309 309 309 309 309 309 308 308 307 307 307 307 307 307 308 307 307 306 305 304 304 304 304 304 304 305 306 305 305 304 304 303 303 303 306 307 306 296 303 304 299 292 300 307 306 305 305 304 302 297 296 300 303 303 303 301 301 300 301 300 299 298 297 292 295 295 296 297 295 295 296 296 295 295 294 294 295 295 295 294 293
310 310 310 310 309 309 308 309 308 309 308 308 308 308 308 307 307 307 306 305 306 308 307 306 304 303 304 304 303 304 305 305 304 305 304 303 302 301 299 300 305 306 306 303 304 302 300 299 303 304 305 303 303 296 302 294 299 302 303 303 302 302 301 302 300 300 300 298 297 297 297 298 297 296 295 296 297 297 297 295 295 294 294 294 294 294 293
310 310 309 309 309 309 308 308 308 307 307 308 308 308 309 308 307 306 306 306 306 306 306 306 299 305 304 304 304 303 304 304 303 303 303 301 301 300 298 301 305 305 294 297 299 300 303 304 303 299 303 301 300 292 288 295 301 302 303 302 302 301 301 301 300 299 300 299 298 298 297 297 296 295 295 296 296 296 296 295 295 295 295 294 293 293 293
309 309 309 308 308 308 307 307 307 307 307 307 307 307 307 308 308 307 306 306 305 305 304 305 305 301 305 304 303 302 302 303 302 302 302 303 303 303 301 304 305 305 292 299 301 303 303 305 304 305 294 294 297 289 287 298 301 302 302 302 301 301 300 300 300 300 300 300 299 299 299 297 295 295 294 294 295 295 295 295 295 294 294 294 294 293 293
310 309 308 308 307 307 307 307 306 306 306 307 307 308 308 308 306 305 304 304 304 304 303 303 303 303 302 303 302 301 301 302 301 302 301 300 302 303 306 305 304 301 293 298 299 301 302 303 304 298 289 288 287 287 293 299 301 301 302 301 301 301 301 301 300 300 300 299 298 299 299 295 296 295 295 294 294 295 296 295 295 295 294 294 293 293 293
308 308 308 308 307 307 306 305 305 306 307 307 307 307 307 306 305 305 304 304 303 303 302 303 303 302 303 302 302 302 303 303 302 301 299 298 298 300 304 298 303 301 298 292 299 300 301 302 297 288 289 287 287 287 297 300 301 300 301 301 302 301 301 301 300 300 300 300 299 299 298 297 297 296 296 294 292 293 294 294 294 294 294 293 293 292 293
308 308 308 300 306 306 306 307 308 307 306 306 306 305 304 305 304 304 304 303 303 303 303 303 303 303 303 303 303 303 303 303 303 303 303 302 301 302 304 297 301 297 293 291 299 299 300 291 289 289 288 288 287 294 299 299 301 301 301 301 301 300 301 301 301 301 300 299 299 299 298 298 297 296 296 294 293 293 293 291 291 293 294 293 293 293 293
307 307 307 308 308 309 308 308 307 306 306 305 303 304 304 304 304 303 303 303 303 303 304 304 304 304 305 304 303 302 301 301 302 303 303 304 303 301 298 296 294 292 294 298 298 299 298 298 293 289 288 288 287 298 300 301 301 301 301 301 300 301 300 301 301 301 300 300 298 297 294 296 296 295 293 292 292 292 291 290 290 291 292 291 291 290 290
307 307 307 307 307 308 308 306 305 304 303 302 303 303 303 304 303 303 304 303 303 304 304 305 304 304 305 305 305 304 304 302 299 300 303 303 304 303 303 301 299 290 291 291 293 293 290 288 288 288 288 288 296 301 301 301 301 300 301 301 301 301 301 301 300 300 300 299 298 298 297 296 295 294 292 291 291 291 291 291 291 291 292 291 291 291 291
307 307 307 306 306 306 305 304 303 301 303 303 302 302 303 303 302 302 303 304 303 303 302 303 303 304 304 302 303 304 304 304 303 300 302 302 302 301 300 296 291 290 295 297 299 299 293 290 289 288 288 289 300 301 301 300 300 299 299 299 299 300 299 299 300 300 300 299 299 298 297 295 294 292 291 290 290 291 291 292 292 292 292 292 291 291 290
306 306 305 305 305 305 304 303 303 304 304 303 303 303 304 302 301 302 303 302 302 299 302 302 303 302 303 304 304 304 304 303 303 303 302 301 301 300 298 298 298 292 292 297 299 298 293 291 291 292 296 299 300 300 300 300 300 300 299 297 298 299 298 297 292 292 297 297 299 298 296 294 293 291 290 290 290 290 291 290 291 288 285 287 290 290 290
305 304 305 304 305 305 305 304 304 303 303 304 304 303 303 302 302 300 302 302 301 300 301 301 302 302 303 304 303 303 303 303 301 297 300 300 299 295 294 296 298 295 296 297 298 298 299 300 299 297 297 298 299 299 300 299 298 298 296 298 298 297 297 296 296 297 297 297 297 296 295 293 292 291 290 289 288 288 289 289 290 291 290 290 290 291 290
306 306 305 305 305 305 305 304 305 304 304 304 303 303 303 302 301 301 302 295 300 301 301 301 300 301 303 303 301 302 302 301 300 300 296 300 298 298 296 293 299 296 298 298 298 299 299 298 294 292 292 298 299 299 293 293 297 298 298 296 295 297 296 296 295 296 296 296 296 295 292 292 291 289 289 289 288 288 288 289 290 290 290 291 292 291 291
Wind_Speed
3 3 2 2 2 3 3 3 3 3 4 4 5 4 3 4 4 4 5 4 5 4 2 0 2 4 7 8 9 9 7 7 7 7 7 8 8 7 7 7 6 6 5 5 4 4 3 3 3 4 5 6 6 7 8 9 9 8 8 9 10 10 10 10 9 10 9 9 9 10 11 11 11 11 12 12 12 12 12 12 11 12 13 14 14 12 11
3 2 1 0 4 1 3 2 2 2 4 4 4 2 1 3 3 4 5 6 7 6 5 4 2 0 3 5 4 5 7 7 7 8 8 8 8 8 8 7 7 7 7 6 5 4 5 4 4 5 5 6 8 8 8 8 8 8 8 8 10 10 10 10 9 10 10 9 10 10 10 11 11 11 12 13 13 13 14 13 13 13 13 13 14 13 12
3 2 0 2 4 5 6 2 3 4 3 4 2 4 3 4 6 5 5 6 8 1 3 3 2 1 3 4 7 8 9 9 9 8 8 8 9 8 8 8 7 7 6 7 6 6 5 5 4 5 5 6 7 9 8 8 8 8 8 9 9 10 11 10 9 9 9 10 10 11 11 11 11 13 13 12 13 13 13 13 13 13 13 13 13 12 12
3 2 2 2 4 6 7 7 5 5 5 6 2 3 0 4 5 3 4 7 1 6 2 0 2 2 4 5 6 7 7 8 8 9 9 9 9 8 9 8 8 7 7 7 7 6 6 6 6 6 6 7 8 9 8 8 7 7 8 8 9 10 9 10 9 9 10 11 11 11 11 12 13 13 13 13 13 13 13 14 12 12 13 12 13 13 11
3 2 3 4 5 6 8 5 2 3 3 4 4 4 3 6 5 6 4 4 6 6 4 5 3 3 3 4 5 6 8 8 8 9 9 9 8 8 8 8 7 7 7 8 6 5 7 7 6 6 6 7 7 7 8 8 7 7 8 9 10 9 10 10 10 10 10 11 12 12 12 13 12 12 13 13 13 13 14 13 12 13 13 11 11 11 10
2 1 2 3 5 3 3 4 3 3 3 3 6 5 4 3 5 6 6 8 7 6 4 4 5 4 4 4 2 3 6 6 6 8 8 9 8 7 6 5 5 5 6 5 4 5 6 6 6 5 5 6 6 7 7 7 8 9 9 10 10 10 11 11 11 10 11 11 12 12 13 12 12 12 12 12 12 12 12 12 12 13 12 12 11 10 10
1 1 4 2 2 1 5 4 3 2 2 3 5 8 8 7 6 8 10 10 8 5 4 4 4 5 5 3 5 5 3 4 6 8 8 7 7 5 4 5 5 5 4 4 5 5 6 5 3 5 7 6 6 7 8 9 8 9 9 10 10 11 11 11 11 10 11 12 12 12 12 12 12 12 12 12 12 11 11 11 12 12 11 11 9 9 10
1 3 1 2 2 4 2 3 3 2 1 2 4 8 8 7 7 7 9 8 7 4 3 2 2 3 3 4 5 5 4 3 4 6 6 7 5 5 5 5 5 5 5 5 5 5 4 4 5 6 6 5 6 8 8 9 8 9 10 10 10 11 11 11 11 11 11 11 11 11 11 11 12 12 12 12 12 11 11 11 11 11 11 9 8 9 9
2 2 3 3 5 3 4 3 3 5 2 2 3 4 5 3 2 4 6 6 4 2 0 1 1 1 3 4 5 4 1 2 2 4 5 4 5 3 3 3 3 3 4 5 4 4 4 4 5 5 5 5 7 8 9 8 9 10 10 10 11 11 11 11 11 11 10 11 10 10 11 11 11 12 12 12 11 10 11 11 11 11 11 10 9 9 9
3 4 4 2 1 2 4 5 5 2 2 3 2 4 8 4 0 2 5 5 2 1 1 1 1 1 5 5 2 9 4 4 3 3 4 3 4 4 4 3 4 4 4 5 4 4 4 4 4 4 4 5 7 8 9 9 9 10 10 10 11 11 11 11 10 10 11 11 11 10 11 12 12 12 12 11 11 10 11 12 11 11 10 10 10 9 9
2 3 3 2 2 1 4 5 4 3 1 1 2 5 5 7 3 2 3 3 2 2 1 1 1 4 5 4 5 8 6 4 4 5 5 4 5 5 5 6 7 7 4 5 5 4 4 5 4 3 5 6 8 9 9 10 10 10 9 10 10 11 11 11 11 11 11 11 11 11 12 12 11 12 12 11 11 11 10 10 11 11 10 10 10 9 9
3 3 3 3 0 1 4 5 4 4 3 2 5 5 3 4 3 1 2 4 3 2 2 1 3 4 6 6 7 6 5 3 3 5 6 5 4 5 5 5 4 5 4 4 5 5 5 5 3 4 5 6 8 9 9 10 10 10 9 9 10 11 11 11 10 10 10 10 10 11 12 11 11 11 10 11 11 11 11 10 10 11 11 10 11 10 10
3 2 4 3 2 2 4 5 6 6 3 2 4 2 4 5 2 1 1 3 3 2 3 3 5 4 3 3 3 3 1 3 2 1 2 4 4 5 4 3 2 5 4 5 6 6 5 3 4 5 5 6 8 9 9 10 11 9 9 9 9 11 11 11 11 11 10 10 10 10 10 10 10 10 10 10 11 11 11 11 11 11 12 11 10 10 10
4 1 4 3 3 5 5 5 6 6 5 3 3 7 2 2 1 2 1 2 2 3 5 4 5 5 4 0 2 3 3 3 4 3 2 2 2 3 3 1 4 5 5 5 5 5 4 5 5 5 5 7 8 9 10 10 10 9 9 9 10 10 11 11 11 11 11 10 10 9 10 10 10 10 10 11 10 11 10 11 12 12 12 10 10 10 9
1 2 3 4 3 2 5 10 6 3 3 4 5 2 4 0 2 1 2 2 1 3 4 5 5 6 4 3 4 4 3 3 3 3 2 3 3 3 4 4 5 5 5 6 5 5 5 5 5 5 6 8 9 9 10 11 10 10 10 10 10 11 11 11 11 11 10 11 10 8 9 9 10 11 10 10 11 10 11 11 11 12 12 10 10 10 9
4 2 2 1 4 6 11 9 2 9 8 5 3 4 1 4 1 1 1 2 2 3 5 4 5 5 6 5 5 6 5 4 3 3 3 3 4 4 4 5 4 6 7 6 6 5 6 6 6 6 6 8 8 9 11 10 9 10 10 10 10 10 10 11 11 11 11 12 11 10 10 10 9 10 10 10 10 10 10 10 10 11 10 10 10 10 9
2 3 5 6 4 4 9 9 6 3 2 1 1 2 4 2 2 1 3 1 2 4 4 5 5 5 5 6 5 6 5 4 4 4 3 4 4 5 5 5 4 5 6 7 7 8 7 7 6 7 7 8 9 10 10 9 9 11 10 10 10 10 11 11 11 11 12 12 12 10 10 9 9 9 10 10 10 9 10 10 9 10 10 10 10 9 8
2 8 10 7 4 3 6 9 9 7 3 1 2 4 5 4 2 1 4 2 1 3 4 5 4 5 5 5 5 5 5 5 4 3 4 4 4 5 5 5 4 6 6 7 9 10 9 7 7 7 8 8 9 9 9 9 9 8 10 10 10 11 11 10 11 11 12 12 12 11 10 9 9 9 9 9 9 9 9 9 9 9 10 10 10 9 9
2 3 5 4 1 1 3 5 7 8 8 7 5 5 6 5 4 3 4 4 2 2 4 5 6 5 5 5 5 5 5 5 5 5 5 5 5 6 7 6 6 6 7 8 10 10 11 8 7 8 9 8 8 8 8 8 8 8 8 9 10 10 10 10 11 11 12 11 10 10 10 9 9 8 8 9 9 9 8 9 9 9 9 10 9 9 9
6 7 8 5 3 5 5 6 5 6 7 8 8 8 7 6 5 5 4 4 5 4 5 6 7 7 6 6 6 6 6 5 5 5 5 6 6 6 7 6 6 7 8 9 10 11 10 9 8 9 9 9 8 8 8 8 8 8 8 9 10 10 11 10 10 10 11 9 9 10 10 10 9 9 8 8 9 9 9 9 9 9 9 10 9 9 9
8 10 11 4 4 6 5 4 4 4 4 5 4 5 6 7 8 7 7 6 5 5 6 5 6 7 7 7 7 7 7 6 5 6 6 6 6 7 7 6 7 7 8 10 11 11 11 10 10 9 10 10 9 8 8 9 8 8 8 9 9 11 10 9 8 8 9 10 11 11 11 11 9 9 8 8 8 9 8 8 7 8 9 9 9 9 8
5 5 4 5 4 2 2 3 4 2 3 3 4 4 5 6 7 6 7 6 6 7 5 6 6 8 7 7 6 8 7 7 7 6 6 6 7 8 7 6 7 8 9 11 12 11 11 11 11 10 10 11 10 10 10 9 8 8 9 9 9 10 10 9 8 9 10 11 11 11 11 11 10 9 6 9 6 6 8 4 3 2 3 7 8 7 7
4 4 4 2 3 6 4 3 4 3 2 3 4 4 4 3 3 3 4 6 6 7 7 6 7 8 8 8 6 7 7 7 6 7 7 7 7 8 7 7 7 8 9 10 10 11 12 12 12 11 11 11 12 11 11 11 10 9 9 9 9 10 11 10 8 7 10 11 10 10 11 10 10 10 10 6 12 13 8 9 9 9 8 10 11 10 7
11 9 3 2 3 4 6 7 7 6 3 4 5 5 3 2 1 1 3 4 6 6 6 4 5 6 7 7 6 8 8 8 7 7 7 7 7 8 8 8 8 8 9 10 10 12 11 12 12 11 12 12 12 12 11 11 10 8 9 9 9 10 11 11 10 9 10 11 10 10 10 10 10 11 11 11 9 8 14 11 11 12 10 9 8 8 8
6 4 2 3 4 6 7 7 7 7 5 4 5 5 4 4 2 2 3 3 3 5 6 7 3 3 5 6 6 7 8 8 7 5 5 6 6 7 8 9 9 9 10 10 10 11 11 11 12 11 11 13 13 13 12 12 11 9 11 11 11 11 11 11 11 10 10 10 11 10 11 11 11 11 11 12 11 11 6 13 15 12 10 10 8 7 7
5 4 2 3 6 8 7 7 7 1 2 2 3 2 2 2 4 3 2 3 3 3 4 5 6 5 4 6 6 6 7 8 6 5 6 6 7 7 8 10 10 9 10 10 11 11 12 13 12 11 12 13 13 14 13 12 12 11 12 12 12 10 9 10 11 11 10 9 10 11 10 11 10 10 11 12 12 12 11 11 8 6 9 9 6 7 3
3 3 4 6 8 7 3 4 5 6 5 3 2 2 2 2 2 0 1 1 1 3 4 5 5 5 5 5 6 6 7 6 5 5 6 7 8 9 10 10 10 11 12 11 11 12 12 12 11 11 13 14 14 14 13 12 11 10 10 11 11 11 11 9 9 10 10 10 9 10 10 10 10 10 10 9 10 11 11 11 10 10 9 3 6 7 3
4 4 5 6 5 3 4 4 4 5 3 3 1 1 2 1 0 1 1 2 3 3 3 2 4 4 5 3 4 4 5 6 6 6 7 8 8 9 10 11 11 10 10 9 10 11 11 11 12 12 13 13 13 13 12 12 11 11 11 11 12 11 10 8 8 8 8 8 8 8 9 9 7 8 8 10 12 11 9 10 10 9 7 6 3 8 8
4 4 4 6 6 5 4 4 4 2 1 2 0 1 1 1 2 2 3 5 5 5 5 5 3 3 4 4 4 5 5 5 6 7 8 9 9 10 10 9 9 8 8 9 10 10 11 12 12 13 13 12 13 12 10 11 11 11 10 10 11 11 10 9 9 10 10 9 10 9 6 5 6 7 9 10 12 11 10 10 9 8 8 7 4 2 5
3 3 3 3 4 4 5 3 1 2 2 3 2 3 4 3 3 3 4 5 5 5 5 4 5 4 4 4 4 4 6 7 8 8 9 9 10 10 10 9 8 8 9 9 10 11 13 14 13 14 13 13 12 10 10 9 9 11 13 14 11 12 11 9 10 12 10 8 9 1 2 4 6 8 10 11 10 10 10 9 8 8 8 7 4 4 5
3 3 4 3 3 4 5 2 0 3 4 4 4 5 5 3 3 3 4 3 3 5 6 6 6 6 6 6 6 6 6 6 7 7 8 9 9 9 9 9 9 9 10 12 13 13 13 13 12 14 13 14 13 13 12 8 9 11 11 10 6 9 14 12 9 8 6 5 8 4 4 6 8 9 11 10 9 9 9 8 8 7 7 6 6 5 4
5 6 6 6 6 5 3 2 2 3 4 4 4 4 3 2 3 3 4 4 5 5 6 6 7 7 6 6 6 5 5 6 7 7 8 8 9 9 9 9 9 9 10 10 11 11 11 11 12 12 12 13 13 14 12 9 9 9 10 8 8 10 10 12 8 5 3 4 5 3 6 7 7 7 8 9 9 10 9 8 7 7 6 6 7 5 2
6 7 8 9 7 5 4 3 3 4 4 4 3 3 3 2 2 2 3 3 4 4 4 5 5 5 5 5 5 6 6 7 7 7 8 9 10 10 9 8 8 8 8 8 9 8 8 9 10 10 11 11 12 12 11 10 9 8 6 7 9 10 9 5 4 5 7 7 6 6 6 6 5 6 7 7 8 8 8 7 7 7 7 7 6 3 1
7 5 4 4 2 1 4 5 3 4 4 3 3 3 3 2 2 2 2 2 3 4 4 5 5 5 5 6 6 6 6 7 7 8 9 9 9 9 9 8 7 7 6 7 7 7 7 9 9 9 11 11 11 10 10 10 8 7 7 9 9 9 9 6 6 7 6 6 6 6 5 5 5 5 6 7 7 7 7 7 6 6 6 7 6 4 6
6 5 3 2 1 1 2 1 3 4 3 4 4 3 3 3 2 4 2 2 3 4 3 4 5 5 5 6 7 7 7 7 8 8 9 9 9 9 8 8 8 8 7 8 7 8 10 10 10 11 12 11 10 9 8 9 7 6 8 9 9 9 9 8 7 7 6 6 6 4 3 4 4 4 6 7 6 6 6 6 6 6 6 7 7 6 2
6 5 5 4 3 2 2 2 2 2 2 2 3 2 2 3 2 2 2 3 3 3 3 4 5 6 6 7 7 7 8 7 8 8 9 9 9 8 8 9 10 10 9 10 8 11 11 8 9 10 10 9 8 8 8 8 8 7 8 9 9 8 7 7 7 7 6 5 3 2 3 2 4 5 4 5 5 5 5 5 5 4 5 6 7 7 5
4 4 3 4 4 3 3 3 3 2 2 2 3 3 3 3 3 3 2 2 3 3 3 4 4 6 6 6 6 6 7 6 7 7 7 7 6 7 9 10 10 11 11 10 10 11 9 9 10 13 10 7 8 9 8 0 6 8 8 8 7 7 7 7 7 7 6 4 3 2 3 5 4 4 5 6 5 5 6 6 5 5 5 5 6 7 6
5 4 4 4 5 5 4 4 3 3 3 4 3 3 2 2 2 2 2 2 2 3 3 3 4 4 4 5 7 8 8 7 6 6 7 7 8 9 9 9 10 10 10 9 11 10 9 10 12 10 9 9 9 10 8 2 4 7 8 8 8 7 7 7 7 6 5 4 5 5 4 3 4 5 5 5 5 6 6 6 6 6 6 6 6 6 7
6 5 5 4 5 5 5 4 4 2 2 2 2 3 4 3 2 1 0 2 3 3 3 4 4 5 5 7 7 7 6 5 5 6 7 8 8 9 8 10 9 9 7 9 11 10 10 10 10 9 9 9 11 10 10 6 2 7 8 8 8 7 7 7 7 4 4 4 3 4 4 5 6 5 4 5 6 5 5 4 6 7 7 6 5 6 6
7 7 7 6 6 6 5 4 3 3 2 1 2 3 3 2 0 1 2 2 2 2 3 3 5 5 6 6 6 5 5 5 5 6 7 8 8 10 9 10 8 9 8 11 11 10 10 12 10 9 8 9 11 10 10 6 7 9 8 8 7 7 7 6 6 5 6 6 7 7 6 6 6 5 5 5 5 6 5 5 5 5 6 6 5 6 6
7 7 6 6 5 4 3 3 3 4 4 4 3 3 1 1 1 2 2 3 3 1 2 3 5 5 4 4 4 5 4 4 6 7 8 10 10 10 10 10 9 8 8 9 9 10 10 10 9 9 7 10 11 8 9 11 11 10 9 8 7 7 7 6 6 6 7 7 7 6 6 6 6 5 6 6 5 5 5 5 5 5 5 5 6 5 5
7 7 6 5 4 4 3 3 4 4 4 4 4 3 2 1 1 2 2 3 3 2 3 1 3 4 3 3 3 5 5 6 8 8 9 10 10 10 10 9 9 7 9 10 9 11 11 11 10 7 8 10 10 9 10 10 9 9 9 8 8 7 7 7 7 7 7 6 6 6 7 6 6 5 5 5 5 5 5 5 5 5 5 5 5 5 4
7 7 6 5 5 4 4 3 2 3 4 3 2 2 1 1 0 1 2 1 2 3 4 2 5 7 3 3 5 6 6 7 8 9 9 9 9 10 10 8 9 8 7 9 11 12 11 11 11 7 9 9 9 11 12 9 10 10 9 9 8 7 7 7 7 7 7 7 8 8 7 7 6 5 5 4 5 5 5 5 5 5 5 5 5 5 5
6 5 5 5 4 3 2 2 2 3 3 3 3 2 2 1 0 1 2 3 3 2 3 3 4 4 4 5 5 6 7 7 8 8 9 9 8 10 9 7 9 8 5 8 11 11 11 11 9 9 10 11 11 11 9 10 10 10 9 9 8 8 7 7 8 8 8 8 8 8 8 7 6 5 5 5 5 5 5 5 4 4 5 5 5 5 5
6 5 4 4 4 3 3 2 2 2 1 2 3 3 2 1 1 1 2 2 3 2 2 3 3 4 5 5 5 5 6 7 8 9 10 11 10 9 8 8 8 8 8 9 10 10 11 11 11 10 10 11 12 12 10 10 11 10 10 9 9 8 8 8 8 8 9 9 9 9 8 7 6 6 6 5 4 4 4 5 5 5 5 5 6 6 6
6 5 4 4 3 3 1 0 1 1 2 3 3 4 2 1 1 1 1 2 2 2 3 3 3 3 3 4 5 5 6 6 8 9 9 8 9 9 9 8 8 7 9 11 10 11 11 11 12 11 11 13 13 11 11 11 11 10 10 10 9 9 9 8 8 8 9 9 9 9 8 7 7 6 5 5 5 6 6 4 4 4 5 5 6 6 6
5 4 4 3 2 2 2 2 2 2 3 3 4 2 2 1 0 2 2 2 3 3 4 4 3 2 2 3 5 6 7 7 7 8 7 7 8 8 9 8 7 8 9 11 11 11 11 12 12 12 12 13 14 11 11 10 10 10 10 10 10 10 9 9 8 8 8 9 9 8 7 7 6 6 6 6 5 4 4 4 5 5 5 5 6 6 6
4 3 3 3 3 4 4 4 4 4 3 3 2 3 1 1 1 2 2 2 3 4 5 5 4 5 4 4 5 5 4 6 8 8 7 8 8 9 9 9 10 8 9 11 11 11 12 11 11 12 13 13 11 10 11 10 11 11 12 12 12 11 11 10 10 10 10 10 9 9 8 7 7 6 6 6 5 6 6 6 5 6 6 6 7 7 7
2 2 3 3 3 4 4 3 3 4 4 1 1 2 0 2 4 4 2 2 4 5 6 6 6 6 6 5 5 5 4 4 6 7 8 8 8 9 9 10 9 10 10 10 11 11 10 10 12 12 11 11 10 11 11 12 13 13 13 13 12 12 12 11 11 11 10 9 9 10 8 7 6 6 6 6 6 5 5 5 4 6 7 7 6 6 5
4 3 4 4 4 4 4 4 4 3 2 2 3 1 1 3 5 4 4 4 5 5 6 5 6 7 6 6 5 6 5 6 6 7 8 9 9 9 9 9 10 9 9 10 11 11 11 12 10 8 11 11 11 11 12 13 13 12 12 12 12 11 11 11 10 11 11 11 9 9 7 6 6 6 6 5 5 4 5 5 5 5 8 2 5 5 5
4 4 4 3 3 2 2 3 3 3 4 3 3 2 3 5 5 5 4 3 6 6 6 6 7 7 6 5 5 6 6 7 8 7 8 8 8 9 9 9 10 9 10 10 10 11 11 10 10 11 11 11 11 11 11 11 12 13 13 12 12 11 11 10 10 10 10 10 10 8 6 6 6 6 6 5 5 4 5 5 6 5 6 7 6 6 5
2 2 2 2 3 3 3 3 2 2 2 3 3 3 3 4 4 5 1 6 4 5 5 6 7 7 5 4 5 7 6 7 7 7 8 7 8 8 8 9 8 9 10 10 10 10 10 10 11 10 11 11 11 11 12 13 13 13 12 12 11 11 10 10 10 10 10 9 9 6 5 5 6 6 5 5 5 5 6 6 6 6 6 6 6 5 5
Wind_Direction
48 25 34 336 318 1 350 333 321 2 8 7 23 44 54 325 346 16 29 356 312 313 325 2 230 228 222 224 221 228 228 224 213 213 222 224 230 224 227 227 230 237 239 236 245 259 270 279 277 285 304 322 318 317 320 330 330 329 326 321 321 321 320 314 320 316 313 319 314 315 315 317 316 319 317 315 317 318 315 314 315 318 321 320 311 306 308
96 79 26 295 289 297 269 274 300 326 320 333 333 336 332 301 308 341 338 324 312 297 297 304 321 17 283 270 263 229 225 226 228 235 235 242 242 241 239 233 228 231 239 242 241 253 268 271 285 300 311 309 321 323 326 332 329 334 324 322 320 320 316 318 318 317 317 316 318 317 314 318 321 318 315 317 318 314 313 316 317 316 318 317 312 305 305
115 82 220 243 283 299 293 277 252 269 292 294 279 288 256 269 261 265 285 301 291 69 57 327 12 287 248 239 227 227 233 234 235 241 249 252 256 257 251 251 249 239 234 239 243 252 257 261 275 292 301 307 309 318 329 327 331 327 325 324 320 320 318 320 318 316 320 319 317 317 324 315 316 316 320 318 313 312 314 317 317 317 316 316 316 310 304
122 152 285 273 278 273 278 282 273 258 255 265 232 262 319 265 307 308 286 275 346 83 54 355 242 241 235 236 228 228 228 234 238 246 256 263 263 260 263 263 256 249 241 240 246 257 267 269 274 281 293 303 317 323 329 324 325 323 322 320 323 321 324 320 316 321 321 318 318 322 318 320 321 320 316 315 315 318 319 317 319 316 312 316 318 313 307
71 74 279 283 278 263 245 229 256 280 247 267 295 271 250 261 297 282 273 317 34 359 357 306 263 235 252 248 240 235 233 241 253 252 257 264 264 262 264 265 261 251 251 264 256 257 253 265 280 286 289 300 315 320 322 321 315 314 317 320 324 325 327 325 319 321 321 320 321 320 322 322 319 317 318 318 322 322 318 319 316 315 317 316 315 314 309
90 104 311 259 246 249 64 53 26 357 320 324 289 298 299 251 224 284 317 312 321 309 295 288 294 272 270 281 299 328 302 286 257 261 269 275 277 271 262 255 253 258 257 259 258 249 261 275 278 295 293 296 306 310 304 303 315 321 320 322 322 320 327 325 322 323 322 322 321 322 322 321 321 318 318 323 322 318 317 318 318 316 317 317 316 318 316
354 110 228 232 263 47 73 87 65 24 333 307 293 297 290 285 261 265 274 279 285 310 307 302 307 310 310 294 281 268 257 264 272 277 278 271 268 265 246 234 241 248 262 262 251 251 258 269 261 260 286 309 311 310 319 318 321 320 321 323 322 323 327 324 319 323 322 322 322 323 320 320 321 318 323 323 320 320 318 318 318 319 320 321 326 321 318
249 248 224 289 14 51 133 92 92 74 249 265 287 282 264 256 262 266 271 284 302 315 307 322 2 343 342 285 254 252 244 248 286 284 271 276 267 258 259 246 238 252 253 257 261 266 257 236 250 282 308 314 310 314 318 319 322 323 325 324 323 329 329 323 324 325 322 323 323 323 323 324 322 325 327 323 320 320 318 317 318 319 325 332 331 322 316
297 327 298 304 320 234 141 188 185 190 251 197 256 305 323 36 294 274 283 290 294 301 316 20 32 25 270 271 245 155 47 1 294 288 297 310 294 264 244 245 250 245 261 259 263 252 235 254 287 304 316 316 312 313 314 317 323 325 326 325 329 331 326 328 330 329 326 324 326 325 328 323 325 328 323 319 319 324 318 319 319 319 322 319 318 316 317
280 301 316 286 272 299 142 90 82 95 21 358 335 286 271 149 10 302 291 279 269 249 143 121 64 266 272 267 64 83 63 42 335 311 290 267 265 263 252 225 235 237 247 266 245 234 239 244 271 289 297 304 306 304 312 321 325 326 329 332 335 333 329 330 329 326 326 328 329 330 325 326 328 323 319 317 319 321 319 320 319 318 316 314 311 312 312
223 257 275 301 296 9 38 107 96 108 95 211 223 257 266 87 0 59 275 249 218 276 236 152 232 269 285 316 53 73 54 17 359 322 308 290 281 281 279 282 287 289 264 251 252 221 234 261 274 289 302 304 300 311 317 325 328 327 332 337 333 332 328 329 327 326 328 329 327 328 325 327 325 322 322 321 318 318 318 317 316 315 316 311 312 309 308
243 281 268 281 37 353 111 108 125 125 123 174 247 276 48 78 64 59 229 245 259 230 241 209 256 297 300 333 49 48 53 14 357 341 334 318 299 286 294 294 286 287 273 232 235 247 253 263 275 288 296 300 306 308 319 324 327 329 336 334 330 328 328 327 325 327 331 328 329 326 324 324 325 322 319 319 324 321 319 319 321 320 316 314 313 310 308
117 169 283 286 245 157 108 126 126 125 148 228 254 331 52 60 77 103 232 265 256 246 213 217 270 289 345 4 20 60 18 328 348 11 335 326 323 319 316 310 269 273 255 262 276 272 283 283 292 299 301 302 307 314 319 319 326 332 331 332 333 329 328 328 331 334 331 330 329 323 321 323 322 320 320 323 322 322 320 324 327 323 318 313 309 308 309
268 291 286 297 320 72 109 99 130 145 186 231 351 55 20 62 89 124 247 263 240 234 238 248 258 320 26 44 272 273 283 316 348 336 338 280 273 277 293 290 254 265 277 264 259 265 272 275 281 287 292 301 305 315 318 321 328 327 331 331 324 329 330 329 331 331 331 330 324 320 321 321 320 319 321 321 322 322 321 324 324 323 323 318 315 313 315
254 241 274 299 278 121 169 127 132 191 245 3 36 64 107 343 55 343 175 263 212 232 251 242 269 288 280 279 276 288 299 297 303 312 282 283 283 280 260 245 231 251 266 262 259 263 266 266 281 291 296 295 300 310 317 325 325 327 325 320 327 331 332 328 331 332 330 328 322 320 319 320 317 316 317 320 321 319 322 325 326 327 328 328 321 321 323
300 257 250 297 39 110 160 173 226 181 228 9 19 319 166 136 251 229 245 185 222 219 260 273 268 269 284 277 272 274 274 269 262 253 261 267 276 277 278 279 275 228 256 269 272 264 265 269 275 284 282 285 300 309 314 325 322 316 313 321 324 325 326 326 331 330 330 329 330 323 324 321 313 313 317 320 319 322 326 326 330 331 334 334 333 333 333
234 309 324 46 72 113 181 217 284 8 230 283 304 311 322 301 171 194 301 3 177 221 244 261 274 278 264 278 282 280 288 290 281 284 277 279 278 283 289 292 265 245 260 267 265 266 261 264 272 278 274 278 291 300 313 317 316 318 320 315 315 317 322 328 328 327 330 330 330 332 326 319 316 316 316 319 317 324 323 323 329 333 334 337 336 336 336
242 271 269 295 257 221 215 225 250 258 235 208 241 255 269 259 317 242 296 345 214 206 221 259 254 260 279 275 271 266 268 275 275 268 280 270 269 273 276 272 256 247 252 256 259 264 268 265 267 267 272 275 280 294 308 316 316 308 314 314 309 310 315 316 319 321 327 328 334 331 322 322 321 318 318 318 318 322 320 325 331 333 334 337 337 336 335
315 292 129 215 241 153 212 250 247 246 249 251 240 249 252 275 270 256 245 278 285 242 213 242 271 279 272 271 277 279 275 272 276 270 268 266 272 276 272 279 257 239 244 252 256 257 260 260 257 264 271 272 272 284 299 309 311 310 304 303 302 301 303 312 314 317 320 332 330 319 327 330 324 324 323 324 321 316 323 329 331 333 337 337 335 336 333
258 280 303 315 279 269 267 262 264 250 248 247 238 242 258 259 245 248 251 235 237 225 236 243 261 274 278 282 288 290 284 275 276 271 269 275 272 267 274 275 237 246 251 257 262 260 261 263 260 268 276 278 282 289 298 307 307 301 295 294 296 298 303 307 303 311 318 320 309 324 328 328 324 326 325 329 324 320 326 329 329 332 335 334 333 331 331
284 288 272 285 336 284 253 235 256 302 318 312 296 260 246 239 241 234 227 228 248 238 258 260 262 272 278 280 283 283 285 271 262 261 267 270 273 282 276 258 230 249 259 260 259 261 263 266 266 266 272 278 279 278 285 293 295 293 292 291 286 292 301 301 299 306 308 317 321 322 325 324 329 322 329 324 320 320 321 330 333 328 324 320 322 329 327
268 290 9 19 315 323 8 10 32 6 344 310 290 264 246 236 238 234 234 222 224 242 252 258 259 267 279 283 279 280 281 277 279 278 275 275 277 278 276 266 240 243 250 255 262 262 263 268 271 268 274 278 280 278 293 300 295 289 288 285 291 303 309 310 305 303 305 313 316 318 321 324 326 325 301 227 261 303 321 16 123 268 247 286 311 319 307
278 5 2 28 329 281 271 318 354 348 338 314 301 284 268 250 240 246 246 247 233 233 234 231 249 260 272 284 284 273 273 272 270 275 277 277 276 277 279 265 250 245 253 256 258 256 258 266 268 270 270 275 278 278 282 293 294 281 290 295 296 304 313 312 315 309 299 301 309 312 315 318 325 326 326 307 207 226 241 262 278 270 251 252 265 264 270
295 300 334 43 299 297 320 323 321 323 340 309 303 296 288 289 294 229 252 264 282 290 288 252 241 271 279 286 281 277 278 277 276 276 274 273 276 279 280 274 272 266 263 256 249 249 262 270 272 273 272 273 277 281 281 281 289 274 283 284 292 303 310 310 307 296 298 298 301 305 309 316 320 324 324 325 327 209 217 240 240 240 248 249 249 246 239
289 43 31 10 318 296 293 297 306 303 308 292 292 314 352 346 21 345 314 320 322 318 312 317 310 266 277 282 275 272 278 285 282 284 281 277 275 276 279 276 265 262 267 272 275 276 277 275 271 269 269 274 279 284 289 284 283 276 279 277 288 299 299 299 300 292 286 291 296 297 303 309 314 321 322 326 323 328 291 225 224 231 220 223 227 237 255
275 254 271 300 286 278 276 281 266 271 30 342 306 326 31 43 22 350 5 345 338 339 321 315 308 302 276 281 279 272 268 271 283 274 270 272 274 270 273 272 270 274 280 281 284 284 281 275 271 266 271 276 283 288 289 288 285 279 274 277 278 282 279 287 296 298 292 288 289 292 298 302 309 312 316 319 323 319 312 319 293 223 206 210 200 228 197
235 242 264 276 265 259 221 303 344 14 347 351 338 341 19 44 135 350 20 332 337 329 322 324 315 312 298 285 283 280 279 294 283 256 267 275 280 288 297 299 293 291 290 289 289 287 280 279 275 269 274 281 279 278 282 285 271 257 253 262 272 275 230 232 271 284 287 281 278 284 288 294 300 307 313 315 312 312 316 311 304 303 312 227 184 256 175
256 220 223 260 288 328 6 6 339 320 321 342 25 25 52 56 313 291 19 25 20 3 339 327 325 321 306 292 276 275 248 248 264 279 285 289 300 305 304 299 297 298 296 290 288 288 281 276 271 269 273 275 274 274 277 274 262 252 253 262 263 274 275 222 222 250 263 270 278 274 284 291 304 309 299 305 311 318 312 302 290 295 294 298 161 172 130
225 205 207 236 268 303 331 316 288 273 82 104 68 76 147 98 78 40 39 36 21 5 6 10 351 314 309 321 306 306 310 306 300 304 307 310 309 306 305 303 302 295 286 283 282 281 279 278 279 279 278 276 276 274 275 269 259 259 265 271 270 272 271 274 282 291 288 290 292 293 296 297 298 298 299 306 311 316 308 299 293 292 298 293 300 99 186
172 155 200 240 258 281 291 286 38 72 86 87 107 104 81 61 47 39 20 29 17 6 11 359 356 0 348 333 330 318 318 323 323 319 314 310 310 311 308 307 300 290 279 273 278 287 291 292 288 285 285 283 277 275 279 281 280 280 284 277 288 306 305 299 291 280 289 301 298 256 216 272 277 285 292 302 312 309 302 292 286 290 291 294 297 306 322
202 216 259 273 271 269 267 280 98 121 108 111 105 98 88 71 59 21 27 21 17 6 6 358 3 357 3 356 353 346 330 321 317 315 313 313 311 313 315 318 311 313 316 317 317 318 316 313 306 301 302 302 300 298 298 282 280 287 286 283 280 237 238 233 239 259 269 283 279 278 287 279 287 290 299 306 308 310 305 295 288 287 292 291 296 312 319
257 242 233 233 233 239 234 204 188 123 116 121 133 119 96 68 46 25 14 4 15 1 354 357 1 4 1 356 348 341 336 331 323 320 318 317 319 320 324 326 325 317 313 319 323 324 323 322 321 324 323 319 317 317 317 309 308 302 300 307 297 295 258 220 221 205 230 249 254 221 248 267 274 290 300 306 313 310 302 290 287 293 293 294 298 306 327
237 238 231 227 226 225 228 176 187 150 147 139 111 88 92 72 37 28 31 11 355 360 357 0 4 359 356 351 344 344 342 335 325 327 338 340 344 348 350 346 335 332 329 330 328 324 324 328 330 331 330 331 329 327 324 316 304 293 286 265 281 284 286 282 189 176 195 204 209 220 246 255 275 288 298 308 308 301 290 285 291 291 288 292 294 303 69
239 267 0 37 10 213 175 152 156 149 132 115 119 128 108 73 49 38 34 12 13 9 14 7 4 351 354 351 349 350 349 341 344 350 348 346 346 347 345 342 338 335 331 322 322 331 341 335 336 338 339 335 326 322 315 310 304 300 284 289 287 287 283 246 185 206 211 197 218 222 228 239 259 284 294 302 305 295 295 298 293 294 295 289 286 291 128
253 265 265 245 209 93 33 83 139 146 149 160 143 108 87 78 69 74 57 16 31 24 22 3 0 350 352 353 354 354 353 351 349 345 343 344 342 342 340 335 333 330 333 335 342 354 350 341 1 348 335 323 320 317 316 316 306 288 288 283 285 287 281 261 243 229 218 211 215 210 204 253 266 281 290 294 293 290 286 285 288 295 293 291 296 296 160
237 235 225 210 200 185 150 135 99 89 106 75 82 87 90 79 79 96 110 66 47 30 18 6 354 348 356 357 351 348 344 345 344 342 340 340 339 337 333 333 332 328 339 328 352 355 338 358 29 343 317 311 312 317 320 327 312 298 295 294 294 287 269 250 246 240 229 218 199 202 258 305 282 273 281 305 296 289 285 283 279 275 283 296 300 305 310
217 217 194 168 152 152 127 122 112 130 117 104 99 107 107 109 91 99 101 74 58 38 13 353 347 351 352 348 340 332 335 343 345 342 339 336 342 338 332 330 327 329 329 331 357 341 333 2 350 315 303 314 321 322 329 344 308 315 302 295 291 284 277 260 241 233 217 197 146 215 235 237 247 283 272 267 278 286 285 281 276 276 286 296 299 295 291
159 162 141 131 134 134 121 108 125 152 131 120 111 100 85 94 98 72 53 57 56 32 0 335 346 335 338 334 333 335 340 352 350 352 347 349 348 338 331 329 326 330 334 357 344 329 347 352 327 313 318 324 330 327 333 350 283 294 296 295 293 289 277 268 253 223 195 164 173 213 232 239 245 259 267 279 267 261 272 282 284 285 286 282 279 280 285
130 125 121 123 126 122 127 146 168 138 115 94 88 92 91 85 87 290 345 49 54 12 334 335 328 318 335 337 336 337 349 359 357 348 349 347 345 333 332 328 334 353 359 0 336 336 345 339 318 313 326 341 337 331 335 350 269 298 302 294 294 288 281 267 255 207 183 195 213 218 225 243 250 253 265 265 270 266 260 250 290 295 277 278 279 283 285
134 135 133 140 138 148 153 144 135 120 98 86 124 123 126 161 177 315 345 14 62 12 326 326 323 327 333 336 338 342 349 351 345 343 348 340 339 331 332 323 345 347 17 359 340 337 326 298 298 327 339 349 342 338 338 350 321 302 291 294 290 291 282 271 248 212 199 209 207 210 232 241 243 242 249 257 261 256 250 183 206 254 270 271 267 268 272
135 137 142 142 139 148 139 139 131 127 128 123 110 113 109 9 343 330 10 342 347 338 309 327 333 334 343 351 345 338 327 337 344 342 347 336 335 332 331 322 347 343 23 356 334 318 301 300 336 328 347 349 336 345 328 328 313 299 295 290 286 286 282 264 243 233 214 212 211 216 227 237 234 228 235 238 244 250 238 222 232 253 266 278 280 279 277
139 142 141 141 139 130 121 120 135 142 129 121 120 125 115 85 359 350 347 333 323 320 316 79 53 356 17 332 329 318 327 345 342 340 345 338 338 333 330 334 351 2 34 342 324 316 323 323 326 337 1 343 327 347 337 306 295 295 290 289 284 282 275 268 246 237 221 210 218 228 229 231 237 245 241 242 247 248 246 244 246 251 253 256 264 272 278
147 147 146 140 132 135 142 146 148 132 140 138 135 127 124 145 288 305 317 313 329 344 337 360 165 200 233 325 334 329 336 340 334 334 333 329 337 331 328 339 339 359 37 340 335 319 322 320 321 340 9 340 315 318 302 290 294 294 290 287 281 273 269 263 254 240 222 213 220 226 223 219 217 221 236 247 251 251 244 236 238 257 261 254 255 253 254
141 137 136 137 133 128 139 152 150 182 188 161 151 160 178 167 145 342 352 350 343 0 342 343 348 346 339 340 338 337 333 334 328 332 329 326 331 329 350 357 338 340 33 348 328 319 316 316 323 358 339 319 308 304 299 293 288 287 286 282 279 275 268 258 249 237 228 220 223 223 212 205 204 211 216 227 235 248 244 246 255 265 261 250 246 251 252
140 132 130 123 136 164 194 193 215 228 201 143 182 186 184 161 101 61 1 353 3 9 345 351 345 343 342 351 341 341 331 328 329 333 328 329 330 333 358 349 334 324 345 330 310 315 316 319 335 330 315 312 307 301 291 291 292 292 289 285 279 274 268 261 252 241 232 232 225 219 211 203 200 208 212 211 216 232 250 256 244 245 255 251 246 243 242
142 139 134 148 182 204 208 253 133 200 223 250 235 161 154 86 63 68 43 351 356 350 340 336 328 349 358 343 333 324 321 327 333 329 326 332 341 333 336 334 322 335 323 303 314 318 319 326 318 310 314 309 308 298 295 296 296 295 294 291 285 278 271 265 256 246 239 232 225 219 206 198 202 206 202 194 199 214 215 217 263 266 249 242 239 240 242
151 158 168 185 159 133 144 162 174 221 248 252 272 277 115 114 7 322 29 356 333 323 313 312 312 328 352 342 337 328 330 331 328 327 338 345 335 325 326 312 333 343 329 322 317 316 314 311 309 310 305 304 300 294 297 302 305 304 301 296 294 289 285 278 268 261 253 246 236 220 199 195 195 192 185 193 209 216 225 214 213 226 236 232 231 232 238
180 187 172 170 164 156 174 188 215 235 252 281 319 302 287 289 319 330 327 307 309 299 299 297 309 315 329 331 339 335 344 336 327 331 354 337 327 327 328 340 334 325 316 298 292 294 300 302 300 298 301 301 294 304 314 317 316 315 312 309 304 300 295 291 286 280 272 263 239 224 206 192 191 187 176 186 198 203 205 211 208 212 223 220 221 228 230
187 163 145 166 174 188 213 231 242 249 254 130 270 265 34 315 302 281 256 299 303 308 312 310 310 316 323 335 340 340 6 357 334 330 336 328 328 330 336 331 329 333 322 319 318 318 319 313 302 295 296 290 307 321 321 322 321 318 313 310 307 302 298 292 286 282 276 264 246 235 216 186 179 177 180 190 198 201 205 206 204 219 221 222 227 230 232
163 165 189 196 207 215 226 234 244 268 317 290 274 309 329 297 286 308 337 325 324 313 303 313 329 324 324 331 343 348 352 344 337 337 329 330 333 337 334 333 331 312 310 317 319 320 328 320 311 335 330 322 323 320 324 325 324 321 318 313 307 300 300 299 303 300 287 273 252 231 209 179 175 175 183 190 194 203 210 202 207 97 58 237 223 219 217
181 208 230 222 241 237 234 268 299 319 298 299 294 296 278 277 299 310 307 347 318 315 318 322 318 322 335 341 345 342 341 343 338 334 333 333 341 332 331 328 322 332 329 321 329 331 329 333 337 330 325 325 318 322 325 326 322 320 316 315 313 308 304 300 290 282 271 259 247 224 192 172 169 172 180 177 179 191 211 216 224 206 209 216 217 216 215
210 228 231 227 238 223 222 227 216 223 245 244 249 253 263 296 301 302 350 100 320 324 327 324 320 334 337 338 346 336 341 340 325 337 331 330 338 325 330 319 324 336 328 337 331 327 328 331 327 321 318 318 324 322 319 321 324 322 318 316 310 307 304 299 291 284 273 255 240 218 171 165 160 166 170 176 183 200 211 209 212 210 209 212 211 206 210